Tabellarische Ansicht des 25.5.2016


Die einzelnen Werte des Tages

Uhrzeit Temperatur Luftdruck Luftfeuchte Wind Hi-Wind Taupunkt THW Index Wind Chill Heat Index Solar- strahlung Regen

00:00

11.0 C

1012.0 hpa

88 %

4.8 km/h aus 114

14.5 km/h aus WSW

9.1 C

11.0 C

10.9 C

11.1 C

0 W/m

0.00 mm

00:05

10.9 C

1012.0 hpa

88 %

4.8 km/h aus 114

11.3 km/h aus W

9.0 C

10.9 C

10.9 C

11.0 C

0 W/m

0.00 mm

00:10

10.9 C

1012.0 hpa

88 %

6.4 km/h aus 116

11.3 km/h aus WSW

9.0 C

10.5 C

10.4 C

11.0 C

0 W/m

0.00 mm

00:15

10.9 C

1012.1 hpa

88 %

6.4 km/h aus 116

16.1 km/h aus W

9.0 C

10.4 C

10.4 C

10.9 C

0 W/m

0.00 mm

00:20

10.9 C

1012.1 hpa

88 %

3.2 km/h aus 117

9.7 km/h aus W

9.0 C

10.9 C

10.9 C

10.9 C

0 W/m

0.00 mm

00:25

10.9 C

1012.1 hpa

88 %

3.2 km/h aus 116

6.4 km/h aus W

9.0 C

10.9 C

10.9 C

10.9 C

0 W/m

0.00 mm

00:30

10.8 C

1012.3 hpa

88 %

1.6 km/h aus 114

6.4 km/h aus W

8.9 C

10.9 C

10.8 C

10.9 C

0 W/m

0.00 mm

00:35

10.8 C

1012.3 hpa

88 %

8.0 km/h aus 117

16.1 km/h aus WSW

8.9 C

10.1 C

10.0 C

10.9 C

0 W/m

0.00 mm

00:40

10.8 C

1012.3 hpa

88 %

8.0 km/h aus 117

16.1 km/h aus WSW

8.9 C

10.0 C

9.9 C

10.8 C

0 W/m

0.00 mm

00:45

10.8 C

1012.3 hpa

88 %

4.8 km/h aus 116

14.5 km/h aus WSW

8.9 C

10.7 C

10.7 C

10.8 C

0 W/m

0.00 mm

00:50

10.7 C

1012.3 hpa

88 %

1.6 km/h aus 117

8.0 km/h aus W

8.8 C

10.8 C

10.7 C

10.8 C

0 W/m

0.00 mm

00:55

10.7 C

1012.3 hpa

88 %

4.8 km/h aus 115

9.7 km/h aus WSW

8.8 C

10.7 C

10.6 C

10.8 C

0 W/m

0.00 mm

01:00

10.7 C

1012.3 hpa

88 %

3.2 km/h aus 114

8.0 km/h aus W

8.8 C

10.8 C

10.7 C

10.8 C

0 W/m

0.00 mm

01:05

10.7 C

1012.3 hpa

88 %

1.6 km/h aus 117

6.4 km/h aus W

8.8 C

10.8 C

10.7 C

10.8 C

0 W/m

0.00 mm

01:10

10.7 C

1012.3 hpa

88 %

0.0 km/h aus 117

6.4 km/h aus W

8.8 C

10.8 C

10.7 C

10.8 C

0 W/m

0.00 mm

01:15

10.7 C

1012.3 hpa

89 %

4.8 km/h aus 117

6.4 km/h aus WSW

9.0 C

10.7 C

10.6 C

10.8 C

0 W/m

0.00 mm

01:20

10.7 C

1012.3 hpa

89 %

1.6 km/h aus 117

6.4 km/h aus WSW

9.0 C

10.8 C

10.7 C

10.8 C

0 W/m

0.00 mm

01:25

10.7 C

1012.3 hpa

88 %

0.0 km/h aus 113

6.4 km/h aus WSW

8.8 C

10.8 C

10.7 C

10.8 C

0 W/m

0.00 mm

01:30

10.7 C

1012.3 hpa

88 %

3.2 km/h aus 116

6.4 km/h aus WSW

8.8 C

10.7 C

10.7 C

10.7 C

0 W/m

0.00 mm

01:35

10.7 C

1012.3 hpa

88 %

3.2 km/h aus 117

8.0 km/h aus WSW

8.8 C

10.7 C

10.7 C

10.7 C

0 W/m

0.00 mm

01:40

10.7 C

1012.3 hpa

88 %

3.2 km/h aus 116

6.4 km/h aus WSW

8.8 C

10.7 C

10.7 C

10.7 C

0 W/m

0.00 mm

01:45

10.7 C

1012.3 hpa

88 %

1.6 km/h aus 116

4.8 km/h aus SW

8.8 C

10.7 C

10.7 C

10.7 C

0 W/m

0.00 mm

01:50

10.7 C

1012.3 hpa

88 %

3.2 km/h aus 115

8.0 km/h aus WSW

8.8 C

10.7 C

10.7 C

10.7 C

0 W/m

0.00 mm

01:55

10.7 C

1012.3 hpa

88 %

3.2 km/h aus 114

8.0 km/h aus WSW

8.8 C

10.7 C

10.7 C

10.7 C

0 W/m

0.00 mm

02:00

10.7 C

1012.1 hpa

88 %

1.6 km/h aus 117

4.8 km/h aus WSW

8.8 C

10.7 C

10.7 C

10.7 C

0 W/m

0.00 mm

02:05

10.7 C

1012.1 hpa

88 %

0.0 km/h aus 115

0.0 km/h aus ---

8.8 C

10.7 C

10.7 C

10.7 C

0 W/m

0.00 mm

02:10

10.7 C

1012.1 hpa

88 %

1.6 km/h aus 117

6.4 km/h aus WSW

8.8 C

10.7 C

10.7 C

10.7 C

0 W/m

0.00 mm

02:15

10.7 C

1012.0 hpa

88 %

3.2 km/h aus 117

6.4 km/h aus WSW

8.8 C

10.7 C

10.7 C

10.7 C

0 W/m

0.00 mm

02:20

10.7 C

1012.0 hpa

88 %

3.2 km/h aus 114

6.4 km/h aus WSW

8.8 C

10.7 C

10.7 C

10.7 C

0 W/m

0.00 mm

02:25

10.6 C

1012.0 hpa

88 %

3.2 km/h aus 116

6.4 km/h aus WSW

8.7 C

10.7 C

10.6 C

10.7 C

0 W/m

0.00 mm

02:30

10.6 C

1011.9 hpa

88 %

3.2 km/h aus 116

8.0 km/h aus WSW

8.7 C

10.7 C

10.6 C

10.7 C

0 W/m

0.00 mm

02:35

10.6 C

1011.9 hpa

88 %

3.2 km/h aus 117

8.0 km/h aus SSW

8.7 C

10.7 C

10.6 C

10.7 C

0 W/m

0.00 mm

02:40

10.6 C

1011.9 hpa

88 %

3.2 km/h aus 117

8.0 km/h aus SW

8.7 C

10.7 C

10.6 C

10.7 C

0 W/m

0.00 mm

02:45

10.6 C

1011.9 hpa

88 %

1.6 km/h aus 115

8.0 km/h aus SW

8.7 C

10.7 C

10.6 C

10.7 C

0 W/m

0.00 mm

02:50

10.6 C

1011.9 hpa

87 %

1.6 km/h aus 114

4.8 km/h aus SW

8.5 C

10.6 C

10.6 C

10.6 C

0 W/m

0.00 mm

02:55

10.6 C

1011.9 hpa

87 %

1.6 km/h aus 116

4.8 km/h aus SW

8.5 C

10.6 C

10.6 C

10.6 C

0 W/m

0.00 mm

03:00

10.6 C

1011.8 hpa

87 %

0.0 km/h aus 117

1.6 km/h aus SW

8.5 C

10.6 C

10.6 C

10.6 C

0 W/m

0.00 mm

03:05

10.6 C

1011.8 hpa

87 %

0.0 km/h aus 116

0.0 km/h aus ---

8.5 C

10.6 C

10.6 C

10.6 C

0 W/m

0.00 mm

03:10

10.6 C

1011.8 hpa

87 %

0.0 km/h aus 117

0.0 km/h aus ---

8.5 C

10.6 C

10.6 C

10.6 C

0 W/m

0.00 mm

03:15

10.5 C

1011.8 hpa

87 %

0.0 km/h aus 114

0.0 km/h aus ---

8.4 C

10.6 C

10.5 C

10.6 C

0 W/m

0.00 mm

03:20

10.5 C

1011.8 hpa

87 %

1.6 km/h aus 116

6.4 km/h aus SW

8.4 C

10.6 C

10.5 C

10.6 C

0 W/m

0.00 mm

03:25

10.5 C

1011.8 hpa

86 %

3.2 km/h aus 117

8.0 km/h aus SW

8.3 C

10.6 C

10.5 C

10.6 C

0 W/m

0.00 mm

03:30

10.5 C

1011.8 hpa

86 %

3.2 km/h aus 116

6.4 km/h aus SW

8.3 C

10.6 C

10.5 C

10.6 C

0 W/m

0.00 mm

03:35

10.6 C

1011.8 hpa

87 %

3.2 km/h aus 117

6.4 km/h aus SW

8.5 C

10.6 C

10.6 C

10.6 C

0 W/m

0.00 mm

03:40

10.6 C

1011.8 hpa

87 %

3.2 km/h aus 115

6.4 km/h aus SW

8.5 C

10.6 C

10.6 C

10.6 C

0 W/m

0.00 mm

03:45

10.6 C

1011.8 hpa

87 %

3.2 km/h aus 115

6.4 km/h aus SW

8.5 C

10.6 C

10.6 C

10.6 C

0 W/m

0.00 mm

03:50

10.6 C

1011.8 hpa

87 %

1.6 km/h aus 115

8.0 km/h aus SW

8.5 C

10.6 C

10.6 C

10.6 C

0 W/m

0.00 mm

03:55

10.6 C

1011.8 hpa

87 %

3.2 km/h aus 117

8.0 km/h aus WSW

8.5 C

10.6 C

10.6 C

10.6 C

0 W/m

0.00 mm

04:00

10.6 C

1011.4 hpa

86 %

3.2 km/h aus 117

8.0 km/h aus WSW

8.3 C

10.6 C

10.6 C

10.6 C

0 W/m

0.00 mm

04:05

10.6 C

1011.4 hpa

86 %

6.4 km/h aus 117

11.3 km/h aus W

8.3 C

10.0 C

10.0 C

10.6 C

0 W/m

0.00 mm

04:10

10.5 C

1011.4 hpa

86 %

6.4 km/h aus 115

14.5 km/h aus SW

8.3 C

10.0 C

9.9 C

10.6 C

0 W/m

0.00 mm

04:15

10.6 C

1011.4 hpa

86 %

4.8 km/h aus 114

9.7 km/h aus WSW

8.3 C

10.4 C

10.4 C

10.6 C

0 W/m

0.00 mm

04:20

10.6 C

1011.4 hpa

87 %

3.2 km/h aus 117

8.0 km/h aus SW

8.5 C

10.6 C

10.6 C

10.6 C

0 W/m

0.00 mm

04:25

10.6 C

1011.4 hpa

87 %

3.2 km/h aus 117

8.0 km/h aus SW

8.5 C

10.6 C

10.6 C

10.6 C

0 W/m

0.00 mm

04:30

10.6 C

1011.7 hpa

87 %

1.6 km/h aus 116

6.4 km/h aus SW

8.5 C

10.7 C

10.6 C

10.7 C

0 W/m

0.00 mm

04:35

10.6 C

1011.7 hpa

87 %

0.0 km/h aus 116

4.8 km/h aus SW

8.5 C

10.6 C

10.6 C

10.6 C

0 W/m

0.00 mm

04:40

10.6 C

1011.7 hpa

87 %

0.0 km/h aus 114

4.8 km/h aus SW

8.5 C

10.7 C

10.6 C

10.7 C

0 W/m

0.00 mm

04:45

10.6 C

1011.8 hpa

87 %

4.8 km/h aus 116

8.0 km/h aus SW

8.5 C

10.6 C

10.5 C

10.7 C

0 W/m

0.00 mm

04:50

10.6 C

1011.8 hpa

87 %

3.2 km/h aus 117

6.4 km/h aus SW

8.5 C

10.6 C

10.6 C

10.6 C

0 W/m

0.00 mm

04:55

10.6 C

1011.8 hpa

88 %

3.2 km/h aus 116

6.4 km/h aus SW

8.7 C

10.6 C

10.6 C

10.6 C

0 W/m

0.00 mm

05:00

10.6 C

1011.8 hpa

88 %

3.2 km/h aus 117

6.4 km/h aus SSW

8.7 C

10.6 C

10.6 C

10.6 C

0 W/m

0.00 mm

05:05

10.6 C

1011.8 hpa

87 %

4.8 km/h aus 115

9.7 km/h aus SSW

8.5 C

10.5 C

10.4 C

10.6 C

0 W/m

0.00 mm

05:10

10.5 C

1011.8 hpa

87 %

4.8 km/h aus 113

9.7 km/h aus SSW

8.4 C

10.4 C

10.4 C

10.6 C

0 W/m

0.00 mm

05:15

10.5 C

1011.8 hpa

87 %

1.6 km/h aus 117

4.8 km/h aus SSW

8.4 C

10.6 C

10.5 C

10.6 C

0 W/m

0.00 mm

05:20

10.5 C

1011.8 hpa

87 %

3.2 km/h aus 116

6.4 km/h aus SSW

8.4 C

10.6 C

10.5 C

10.6 C

0 W/m

0.00 mm

05:25

10.4 C

1011.8 hpa

86 %

8.0 km/h aus 118

17.7 km/h aus SSW

8.2 C

9.6 C

9.6 C

10.5 C

0 W/m

0.00 mm

05:30

10.4 C

1011.8 hpa

86 %

6.4 km/h aus 117

17.7 km/h aus SSW

8.1 C

9.9 C

9.8 C

10.4 C

0 W/m

0.00 mm

05:35

10.3 C

1011.8 hpa

86 %

6.4 km/h aus 114

14.5 km/h aus SW

8.1 C

9.8 C

9.8 C

10.4 C

1 W/m

0.00 mm

05:40

10.3 C

1011.8 hpa

85 %

6.4 km/h aus 116

14.5 km/h aus SW

7.9 C

9.8 C

9.8 C

10.3 C

5 W/m

0.00 mm

05:45

10.3 C

1011.8 hpa

85 %

8.0 km/h aus 115

16.1 km/h aus SSW

7.9 C

9.4 C

9.4 C

10.3 C

6 W/m

0.00 mm

05:50

10.3 C

1011.8 hpa

84 %

6.4 km/h aus 117

14.5 km/h aus SSW

7.7 C

9.8 C

9.8 C

10.3 C

7 W/m

0.00 mm

05:55

10.3 C

1011.8 hpa

84 %

8.0 km/h aus 117

12.9 km/h aus SW

7.7 C

9.4 C

9.4 C

10.3 C

7 W/m

0.00 mm

06:00

10.3 C

1011.8 hpa

84 %

8.0 km/h aus 115

14.5 km/h aus SW

7.7 C

9.4 C

9.4 C

10.3 C

9 W/m

0.00 mm

06:05

10.3 C

1011.8 hpa

84 %

8.0 km/h aus 112

16.1 km/h aus SW

7.7 C

9.4 C

9.4 C

10.3 C

9 W/m

0.00 mm

06:10

10.3 C

1011.8 hpa

84 %

6.4 km/h aus 117

9.7 km/h aus WSW

7.7 C

9.8 C

9.8 C

10.3 C

7 W/m

0.00 mm

06:15

10.4 C

1011.8 hpa

84 %

4.8 km/h aus 117

9.7 km/h aus SW

7.8 C

10.3 C

10.3 C

10.4 C

9 W/m

0.00 mm

06:20

10.4 C

1011.8 hpa

84 %

3.2 km/h aus 117

9.7 km/h aus WSW

7.8 C

10.4 C

10.4 C

10.4 C

8 W/m

0.00 mm

06:25

10.4 C

1011.8 hpa

84 %

4.8 km/h aus 117

8.0 km/h aus WSW

7.8 C

10.3 C

10.3 C

10.4 C

10 W/m

0.00 mm

06:30

10.4 C

1011.8 hpa

84 %

6.4 km/h aus 114

11.3 km/h aus SW

7.8 C

9.8 C

9.8 C

10.4 C

11 W/m

0.00 mm

06:35

10.4 C

1011.8 hpa

84 %

3.2 km/h aus 116

8.0 km/h aus SW

7.8 C

10.4 C

10.4 C

10.4 C

11 W/m

0.00 mm

06:40

10.4 C

1011.8 hpa

85 %

3.2 km/h aus 117

9.7 km/h aus SW

8.0 C

10.4 C

10.4 C

10.4 C

11 W/m

0.00 mm

06:45

10.4 C

1011.8 hpa

84 %

4.8 km/h aus 117

9.7 km/h aus SW

7.9 C

10.3 C

10.3 C

10.4 C

13 W/m

0.00 mm

06:50

10.4 C

1011.8 hpa

84 %

4.8 km/h aus 117

9.7 km/h aus SSW

7.9 C

10.3 C

10.3 C

10.4 C

18 W/m

0.00 mm

06:55

10.4 C

1011.8 hpa

84 %

4.8 km/h aus 116

9.7 km/h aus SW

7.8 C

10.3 C

10.3 C

10.4 C

20 W/m

0.00 mm

07:00

10.4 C

1011.8 hpa

84 %

6.4 km/h aus 114

11.3 km/h aus S

7.8 C

9.8 C

9.8 C

10.4 C

24 W/m

0.00 mm

07:05

10.4 C

1011.8 hpa

84 %

6.4 km/h aus 116

9.7 km/h aus SW

7.8 C

9.8 C

9.8 C

10.4 C

33 W/m

0.00 mm

07:10

10.4 C

1011.8 hpa

84 %

6.4 km/h aus 117

14.5 km/h aus SSW

7.8 C

9.8 C

9.8 C

10.4 C

38 W/m

0.00 mm

07:15

10.4 C

1011.9 hpa

84 %

4.8 km/h aus 116

9.7 km/h aus S

7.8 C

10.3 C

10.3 C

10.4 C

45 W/m

0.00 mm

07:20

10.4 C

1011.9 hpa

84 %

6.4 km/h aus 117

16.1 km/h aus S

7.8 C

9.8 C

9.8 C

10.4 C

52 W/m

0.00 mm

07:25

10.4 C

1011.9 hpa

84 %

4.8 km/h aus 115

6.4 km/h aus S

7.9 C

10.3 C

10.3 C

10.4 C

54 W/m

0.00 mm

07:30

10.4 C

1011.9 hpa

84 %

3.2 km/h aus 114

6.4 km/h aus S

7.9 C

10.4 C

10.4 C

10.4 C

55 W/m

0.00 mm

07:35

10.5 C

1011.9 hpa

84 %

3.2 km/h aus 118

8.0 km/h aus SSW

7.9 C

10.5 C

10.5 C

10.5 C

59 W/m

0.00 mm

07:40

10.5 C

1011.9 hpa

84 %

4.8 km/h aus 116

8.0 km/h aus SSW

7.9 C

10.4 C

10.4 C

10.5 C

66 W/m

0.00 mm

07:45

10.6 C

1012.0 hpa

84 %

8.0 km/h aus 115

16.1 km/h aus S

8.0 C

9.7 C

9.7 C

10.6 C

72 W/m

0.00 mm

07:50

10.6 C

1012.0 hpa

83 %

6.4 km/h aus 115

11.3 km/h aus S

7.8 C

10.1 C

10.1 C

10.6 C

76 W/m

0.00 mm

07:55

10.6 C

1012.0 hpa

84 %

4.8 km/h aus 113

11.3 km/h aus S

8.0 C

10.5 C

10.5 C

10.6 C

76 W/m

0.00 mm

08:00

10.6 C

1012.1 hpa

82 %

8.0 km/h aus 116

16.1 km/h aus SW

7.7 C

9.7 C

9.7 C

10.6 C

63 W/m

0.00 mm

08:05

10.6 C

1012.1 hpa

82 %

6.4 km/h aus 117

14.5 km/h aus SSW

7.7 C

10.0 C

10.1 C

10.6 C

64 W/m

0.00 mm

08:10

10.6 C

1012.1 hpa

82 %

6.4 km/h aus 117

11.3 km/h aus SSW

7.6 C

9.9 C

10.0 C

10.5 C

71 W/m

0.00 mm

08:15

10.6 C

1012.2 hpa

83 %

6.4 km/h aus 117

14.5 km/h aus SSW

7.8 C

10.1 C

10.1 C

10.6 C

72 W/m

0.00 mm

08:20

10.6 C

1012.2 hpa

82 %

8.0 km/h aus 115

14.5 km/h aus SSW

7.7 C

9.7 C

9.7 C

10.6 C

79 W/m

0.00 mm

08:25

10.6 C

1012.2 hpa

82 %

3.2 km/h aus 115

8.0 km/h aus WSW

7.7 C

10.6 C

10.6 C

10.6 C

87 W/m

0.00 mm

08:30

10.6 C

1012.2 hpa

82 %

6.4 km/h aus 117

9.7 km/h aus SW

7.7 C

10.0 C

10.1 C

10.6 C

85 W/m

0.00 mm

08:35

10.7 C

1012.2 hpa

82 %

4.8 km/h aus 117

9.7 km/h aus SW

7.7 C

10.5 C

10.6 C

10.6 C

77 W/m

0.00 mm

08:40

10.7 C

1012.2 hpa

82 %

4.8 km/h aus 117

9.7 km/h aus SSW

7.7 C

10.5 C

10.6 C

10.6 C

80 W/m

0.00 mm

08:45

10.7 C

1012.3 hpa

81 %

4.8 km/h aus 116

9.7 km/h aus SSW

7.6 C

10.6 C

10.6 C

10.7 C

77 W/m

0.00 mm

08:50

10.7 C

1012.3 hpa

81 %

4.8 km/h aus 114

9.7 km/h aus SSW

7.6 C

10.6 C

10.6 C

10.7 C

79 W/m

0.00 mm

08:55

10.8 C

1012.3 hpa

81 %

4.8 km/h aus 117

11.3 km/h aus SW

7.6 C

10.6 C

10.7 C

10.7 C

79 W/m

0.00 mm

09:00

10.8 C

1012.3 hpa

81 %

4.8 km/h aus 117

9.7 km/h aus SSW

7.6 C

10.6 C

10.7 C

10.7 C

90 W/m

0.00 mm

09:05

10.8 C

1012.3 hpa

81 %

1.6 km/h aus 117

6.4 km/h aus SW

7.7 C

10.8 C

10.8 C

10.8 C

135 W/m

0.00 mm

09:10

10.9 C

1012.3 hpa

81 %

3.2 km/h aus 117

8.0 km/h aus WSW

7.8 C

10.9 C

10.9 C

10.9 C

184 W/m

0.00 mm

09:15

11.1 C

1012.3 hpa

81 %

3.2 km/h aus 113

9.7 km/h aus W

7.9 C

10.9 C

11.1 C

10.9 C

193 W/m

0.00 mm

09:20

11.3 C

1012.3 hpa

79 %

4.8 km/h aus 115

9.7 km/h aus W

7.8 C

11.1 C

11.2 C

11.1 C

215 W/m

0.00 mm

09:25

11.5 C

1012.3 hpa

78 %

4.8 km/h aus 117

9.7 km/h aus W

7.8 C

11.3 C

11.5 C

11.3 C

209 W/m

0.00 mm

09:30

11.4 C

1012.3 hpa

79 %

3.2 km/h aus 117

8.0 km/h aus SW

7.9 C

11.2 C

11.4 C

11.2 C

205 W/m

0.00 mm

09:35

11.4 C

1012.3 hpa

79 %

1.6 km/h aus 117

8.0 km/h aus WSW

7.9 C

11.3 C

11.4 C

11.3 C

184 W/m

0.00 mm

09:40

11.4 C

1012.3 hpa

78 %

4.8 km/h aus 115

8.0 km/h aus WSW

7.7 C

11.3 C

11.4 C

11.3 C

188 W/m

0.00 mm

09:45

11.4 C

1012.3 hpa

78 %

6.4 km/h aus 116

11.3 km/h aus SSW

7.7 C

10.9 C

11.1 C

11.3 C

189 W/m

0.00 mm

09:50

11.6 C

1012.3 hpa

79 %

4.8 km/h aus 117

9.7 km/h aus SSW

8.1 C

11.4 C

11.6 C

11.4 C

184 W/m

0.00 mm

09:55

11.7 C

1012.3 hpa

78 %

3.2 km/h aus 117

9.7 km/h aus WSW

8.0 C

11.4 C

11.7 C

11.4 C

196 W/m

0.00 mm

10:00

11.6 C

1012.3 hpa

79 %

3.2 km/h aus 116

8.0 km/h aus SW

8.0 C

11.4 C

11.6 C

11.4 C

204 W/m

0.00 mm

10:05

11.6 C

1012.3 hpa

80 %

4.8 km/h aus 116

9.7 km/h aus S

8.3 C

11.4 C

11.6 C

11.4 C

184 W/m

0.00 mm

10:10

11.6 C

1012.3 hpa

78 %

3.2 km/h aus 115

6.4 km/h aus S

7.9 C

11.4 C

11.6 C

11.4 C

170 W/m

0.00 mm

10:15

11.7 C

1012.4 hpa

79 %

4.8 km/h aus 116

9.7 km/h aus SW

8.1 C

11.5 C

11.7 C

11.5 C

190 W/m

0.00 mm

10:20

11.7 C

1012.4 hpa

79 %

3.2 km/h aus 117

8.0 km/h aus SW

8.1 C

11.5 C

11.7 C

11.5 C

193 W/m

0.00 mm

10:25

11.7 C

1012.4 hpa

79 %

4.8 km/h aus 117

9.7 km/h aus SW

8.2 C

11.6 C

11.7 C

11.6 C

184 W/m

0.00 mm

10:30

11.8 C

1012.4 hpa

80 %

3.2 km/h aus 116

9.7 km/h aus WSW

8.4 C

11.6 C

11.8 C

11.6 C

193 W/m

0.00 mm

10:35

11.8 C

1012.4 hpa

80 %

3.2 km/h aus 114

8.0 km/h aus WSW

8.4 C

11.6 C

11.8 C

11.6 C

178 W/m

0.00 mm

10:40

11.8 C

1012.4 hpa

81 %

4.8 km/h aus 116

8.0 km/h aus SW

8.7 C

11.7 C

11.8 C

11.7 C

172 W/m

0.00 mm

10:45

11.8 C

1012.5 hpa

80 %

1.6 km/h aus 118

6.4 km/h aus S

8.5 C

11.7 C

11.8 C

11.7 C

164 W/m

0.00 mm

10:50

11.8 C

1012.5 hpa

80 %

4.8 km/h aus 117

8.0 km/h aus WSW

8.5 C

11.7 C

11.8 C

11.7 C

168 W/m

0.00 mm

10:55

11.8 C

1012.5 hpa

80 %

4.8 km/h aus 116

9.7 km/h aus SSW

8.5 C

11.7 C

11.8 C

11.7 C

165 W/m

0.00 mm

11:00

11.8 C

1012.5 hpa

80 %

6.4 km/h aus 115

11.3 km/h aus SW

8.4 C

11.2 C

11.4 C

11.6 C

168 W/m

0.00 mm

11:05

11.8 C

1012.5 hpa

81 %

4.8 km/h aus 115

9.7 km/h aus SSW

8.7 C

11.7 C

11.8 C

11.7 C

199 W/m

0.00 mm

11:10

11.9 C

1012.5 hpa

80 %

1.6 km/h aus 117

8.0 km/h aus SW

8.6 C

11.8 C

11.9 C

11.8 C

191 W/m

0.00 mm

11:15

11.9 C

1012.7 hpa

80 %

3.2 km/h aus 117

11.3 km/h aus SSW

8.6 C

11.8 C

11.9 C

11.8 C

232 W/m

0.00 mm

11:20

12.1 C

1012.7 hpa

80 %

4.8 km/h aus 116

8.0 km/h aus SW

8.7 C

11.9 C

12.1 C

11.9 C

200 W/m

0.00 mm

11:25

12.1 C

1012.7 hpa

79 %

3.2 km/h aus 114

6.4 km/h aus SSW

8.5 C

11.9 C

12.1 C

11.9 C

220 W/m

0.00 mm

11:30

12.1 C

1012.4 hpa

79 %

1.6 km/h aus 114

4.8 km/h aus SSW

8.6 C

11.9 C

12.1 C

11.9 C

250 W/m

0.00 mm

11:35

12.3 C

1012.4 hpa

78 %

1.6 km/h aus 117

8.0 km/h aus SW

8.6 C

12.1 C

12.3 C

12.1 C

239 W/m

0.00 mm

11:40

12.6 C

1012.4 hpa

77 %

3.2 km/h aus 116

8.0 km/h aus SW

8.6 C

12.3 C

12.6 C

12.3 C

230 W/m

0.00 mm

11:45

12.3 C

1012.5 hpa

78 %

4.8 km/h aus 117

11.3 km/h aus SSW

8.6 C

12.1 C

12.3 C

12.1 C

205 W/m

0.00 mm

11:50

12.3 C

1012.5 hpa

78 %

6.4 km/h aus 117

11.3 km/h aus SSE

8.6 C

11.8 C

12.1 C

12.1 C

192 W/m

0.00 mm

11:55

12.3 C

1012.5 hpa

78 %

6.4 km/h aus 114

17.7 km/h aus S

8.6 C

11.8 C

12.1 C

12.1 C

173 W/m

0.00 mm

12:00

12.3 C

1012.6 hpa

79 %

6.4 km/h aus 116

11.3 km/h aus SSW

8.7 C

11.8 C

12.0 C

12.1 C

181 W/m

0.00 mm

12:05

12.2 C

1012.6 hpa

79 %

4.8 km/h aus 117

9.7 km/h aus SSW

8.6 C

12.0 C

12.2 C

12.0 C

202 W/m

0.00 mm

12:10

12.3 C

1012.6 hpa

78 %

6.4 km/h aus 88

17.7 km/h aus S

8.6 C

11.8 C

12.0 C

12.1 C

239 W/m

0.00 mm

12:15

12.3 C

1012.7 hpa

78 %

8.0 km/h aus 116

16.1 km/h aus SSW

8.6 C

11.5 C

11.7 C

12.1 C

290 W/m

0.00 mm

12:20

12.5 C

1012.7 hpa

78 %

8.0 km/h aus 114

11.3 km/h aus SSW

8.8 C

11.7 C

11.9 C

12.3 C

323 W/m

0.00 mm

12:25

12.5 C

1012.7 hpa

78 %

6.4 km/h aus 117

16.1 km/h aus SSW

8.8 C

12.1 C

12.3 C

12.3 C

304 W/m

0.00 mm

12:30

12.6 C

1012.4 hpa

77 %

3.2 km/h aus 117

9.7 km/h aus SSW

8.7 C

12.4 C

12.6 C

12.4 C

331 W/m

0.00 mm

12:35

12.8 C

1012.4 hpa

78 %

6.4 km/h aus 116

9.7 km/h aus SSW

9.0 C

12.3 C

12.6 C

12.6 C

300 W/m

0.00 mm

12:40

12.6 C

1012.4 hpa

77 %

6.4 km/h aus 115

14.5 km/h aus SSW

8.6 C

12.1 C

12.3 C

12.3 C

224 W/m

0.00 mm

12:45

12.5 C

1012.4 hpa

79 %

4.8 km/h aus 114

14.5 km/h aus SSW

9.0 C

12.3 C

12.5 C

12.3 C

243 W/m

0.00 mm

12:50

12.9 C

1012.4 hpa

79 %

8.0 km/h aus 116

14.5 km/h aus S

9.3 C

12.2 C

12.4 C

12.7 C

315 W/m

0.00 mm

12:55

13.1 C

1012.4 hpa

76 %

4.8 km/h aus 118

8.0 km/h aus S

8.9 C

12.8 C

13.1 C

12.8 C

378 W/m

0.00 mm

13:00

12.9 C

1012.4 hpa

77 %

6.4 km/h aus 117

16.1 km/h aus SSW

9.0 C

12.4 C

12.7 C

12.7 C

310 W/m

0.00 mm

13:05

12.8 C

1012.4 hpa

79 %

9.7 km/h aus 117

17.7 km/h aus SW

9.3 C

11.9 C

12.1 C

12.7 C

257 W/m

0.00 mm

13:10

13.0 C

1012.4 hpa

78 %

9.7 km/h aus 114

14.5 km/h aus S

9.3 C

12.1 C

12.3 C

12.8 C

248 W/m

0.00 mm

13:15

12.8 C

1012.4 hpa

78 %

3.2 km/h aus 116

6.4 km/h aus SSW

9.1 C

12.6 C

12.8 C

12.6 C

322 W/m

0.00 mm

13:20

13.3 C

1012.4 hpa

77 %

4.8 km/h aus 116

14.5 km/h aus SSW

9.4 C

13.1 C

13.3 C

13.1 C

511 W/m

0.00 mm

13:25

13.5 C

1012.4 hpa

79 %

8.0 km/h aus 117

14.5 km/h aus SSW

9.9 C

12.9 C

13.1 C

13.3 C

494 W/m

0.00 mm

13:30

13.8 C

1012.2 hpa

75 %

8.0 km/h aus 117

17.7 km/h aus WSW

9.4 C

13.2 C

13.4 C

13.5 C

442 W/m

0.00 mm

13:35

13.8 C

1012.2 hpa

75 %

6.4 km/h aus 114

12.9 km/h aus SSW

9.5 C

13.6 C

13.8 C

13.6 C

429 W/m

0.00 mm

13:40

14.0 C

1012.2 hpa

75 %

9.7 km/h aus 117

16.1 km/h aus W

9.6 C

13.2 C

13.4 C

13.7 C

451 W/m

0.00 mm

13:45

14.3 C

1012.1 hpa

74 %

6.4 km/h aus 116

14.5 km/h aus W

9.7 C

13.9 C

14.3 C

13.9 C

605 W/m

0.00 mm

13:50

15.1 C

1012.1 hpa

74 %

6.4 km/h aus 117

16.1 km/h aus W

10.5 C

14.8 C

15.1 C

14.8 C

582 W/m

0.00 mm

13:55

14.4 C

1012.1 hpa

72 %

8.0 km/h aus 116

16.1 km/h aus WSW

9.4 C

13.8 C

14.2 C

14.0 C

551 W/m

0.00 mm

14:00

14.5 C

1012.0 hpa

74 %

8.0 km/h aus 115

16.1 km/h aus WSW

9.9 C

13.9 C

14.3 C

14.2 C

553 W/m

0.00 mm

14:05

14.6 C

1012.0 hpa

72 %

6.4 km/h aus 115

14.5 km/h aus WSW

9.6 C

14.2 C

14.6 C

14.2 C

525 W/m

0.00 mm

14:10

14.5 C

1012.0 hpa

72 %

4.8 km/h aus 117

14.5 km/h aus WNW

9.5 C

14.1 C

14.5 C

14.1 C

462 W/m

0.00 mm

14:15

14.5 C

1012.1 hpa

72 %

6.4 km/h aus 117

17.7 km/h aus W

9.5 C

14.1 C

14.5 C

14.1 C

450 W/m

0.00 mm

14:20

14.3 C

1012.1 hpa

74 %

4.8 km/h aus 115

9.7 km/h aus W

9.8 C

14.0 C

14.3 C

14.0 C

414 W/m

0.00 mm

14:25

14.5 C

1012.1 hpa

75 %

1.6 km/h aus 115

6.4 km/h aus NW

10.1 C

14.2 C

14.5 C

14.2 C

397 W/m

0.00 mm

14:30

14.6 C

1012.2 hpa

72 %

1.6 km/h aus 117

6.4 km/h aus W

9.6 C

14.2 C

14.6 C

14.2 C

394 W/m

0.00 mm

14:35

14.4 C

1012.2 hpa

73 %

4.8 km/h aus 116

11.3 km/h aus W

9.7 C

14.1 C

14.4 C

14.1 C

321 W/m

0.00 mm

14:40

14.5 C

1012.2 hpa

74 %

6.4 km/h aus 116

14.5 km/h aus WSW

9.9 C

14.2 C

14.5 C

14.2 C

368 W/m

0.00 mm

14:45

14.5 C

1012.3 hpa

72 %

6.4 km/h aus 115

14.5 km/h aus W

9.5 C

14.1 C

14.5 C

14.1 C

297 W/m

0.00 mm

14:50

14.2 C

1012.3 hpa

72 %

4.8 km/h aus 115

9.7 km/h aus SW

9.2 C

13.8 C

14.2 C

13.8 C

286 W/m

0.00 mm

14:55

14.3 C

1012.3 hpa

75 %

3.2 km/h aus 116

8.0 km/h aus WSW

9.9 C

14.0 C

14.3 C

14.0 C

338 W/m

0.00 mm

15:00

14.3 C

1012.3 hpa

73 %

3.2 km/h aus 117

6.4 km/h aus WSW

9.6 C

14.0 C

14.3 C

14.0 C

297 W/m

0.00 mm

15:05

14.2 C

1012.3 hpa

74 %

0.0 km/h aus 118

3.2 km/h aus SW

9.6 C

13.8 C

14.2 C

13.8 C

262 W/m

0.00 mm

15:10

14.3 C

1012.3 hpa

74 %

1.6 km/h aus 114

6.4 km/h aus WSW

9.7 C

13.9 C

14.3 C

13.9 C

208 W/m

0.00 mm

15:15

14.4 C

1012.3 hpa

74 %

1.6 km/h aus 115

8.0 km/h aus SW

9.8 C

14.1 C

14.4 C

14.1 C

207 W/m

0.00 mm

15:20

14.4 C

1012.3 hpa

73 %

4.8 km/h aus 117

9.7 km/h aus WSW

9.6 C

14.1 C

14.4 C

14.1 C

232 W/m

0.00 mm

15:25

14.4 C

1012.3 hpa

73 %

6.4 km/h aus 117

11.3 km/h aus WSW

9.6 C

14.1 C

14.4 C

14.1 C

272 W/m

0.00 mm

15:30

14.3 C

1012.1 hpa

73 %

3.2 km/h aus 116

8.0 km/h aus SW

9.6 C

14.0 C

14.3 C

14.0 C

275 W/m

0.00 mm

15:35

14.4 C

1012.1 hpa

75 %

3.2 km/h aus 113

8.0 km/h aus WNW

10.0 C

14.1 C

14.4 C

14.1 C

249 W/m

0.00 mm

15:40

14.4 C

1012.1 hpa

73 %

3.2 km/h aus 116

6.4 km/h aus WSW

9.6 C

14.1 C

14.4 C

14.1 C

287 W/m

0.00 mm

15:45

14.7 C

1012.1 hpa

73 %

0.0 km/h aus 116

0.0 km/h aus ---

9.9 C

14.3 C

14.7 C

14.3 C

314 W/m

0.00 mm

15:50

14.8 C

1012.1 hpa

71 %

1.6 km/h aus 117

6.4 km/h aus SW

9.6 C

14.4 C

14.8 C

14.4 C

265 W/m

0.00 mm

15:55

14.7 C

1012.1 hpa

71 %

0.0 km/h aus 117

0.0 km/h aus ---

9.5 C

14.3 C

14.7 C

14.3 C

235 W/m

0.00 mm

16:00

14.9 C

1012.2 hpa

73 %

0.0 km/h aus 114

0.0 km/h aus ---

10.1 C

14.6 C

14.9 C

14.6 C

230 W/m

0.00 mm

16:05

14.8 C

1012.2 hpa

72 %

0.0 km/h aus 117

0.0 km/h aus ---

9.8 C

14.4 C

14.8 C

14.4 C

230 W/m

0.00 mm

16:10

14.7 C

1012.2 hpa

74 %

3.2 km/h aus 117

8.0 km/h aus WNW

10.1 C

14.4 C

14.7 C

14.4 C

220 W/m

0.00 mm

16:15

14.8 C

1012.1 hpa

75 %

1.6 km/h aus 116

4.8 km/h aus WNW

10.4 C

14.5 C

14.8 C

14.5 C

230 W/m

0.00 mm

16:20

14.8 C

1012.1 hpa

75 %

1.6 km/h aus 115

6.4 km/h aus NW

10.4 C

14.6 C

14.8 C

14.6 C

330 W/m

0.00 mm

16:25

15.1 C

1012.1 hpa

75 %

4.8 km/h aus 114

11.3 km/h aus NNW

10.7 C

14.8 C

15.1 C

14.8 C

376 W/m

0.00 mm

16:30

15.1 C

1012.0 hpa

72 %

3.2 km/h aus 116

8.0 km/h aus NNW

10.0 C

14.7 C

15.1 C

14.7 C

389 W/m

0.00 mm

16:35

15.1 C

1012.0 hpa

73 %

3.2 km/h aus 117

11.3 km/h aus NW

10.3 C

14.8 C

15.1 C

14.8 C

349 W/m

0.00 mm

16:40

15.1 C

1012.0 hpa

72 %

6.4 km/h aus 116

9.7 km/h aus NW

10.0 C

14.7 C

15.1 C

14.7 C

328 W/m

0.00 mm

16:45

14.9 C

1011.9 hpa

74 %

3.2 km/h aus 115

9.7 km/h aus NW

10.3 C

14.7 C

14.9 C

14.7 C

304 W/m

0.00 mm

16:50

14.9 C

1011.9 hpa

74 %

3.2 km/h aus 115

8.0 km/h aus N

10.3 C

14.7 C

14.9 C

14.7 C

294 W/m

0.00 mm

16:55

14.9 C

1011.9 hpa

75 %

3.2 km/h aus 116

8.0 km/h aus NNW

10.5 C

14.7 C

14.9 C

14.7 C

293 W/m

0.00 mm

17:00

14.9 C

1011.9 hpa

73 %

4.8 km/h aus 116

9.7 km/h aus NNW

10.1 C

14.6 C

14.9 C

14.6 C

267 W/m

0.00 mm

17:05

15.0 C

1011.9 hpa

75 %

1.6 km/h aus 116

6.4 km/h aus NNW

10.6 C

14.7 C

15.0 C

14.7 C

240 W/m

0.00 mm

17:10

14.9 C

1011.9 hpa

73 %

0.0 km/h aus 116

6.4 km/h aus NNW

10.1 C

14.6 C

14.9 C

14.6 C

214 W/m

0.00 mm

17:15

15.0 C

1011.8 hpa

75 %

1.6 km/h aus 115

6.4 km/h aus NNW

10.6 C

14.7 C

15.0 C

14.7 C

238 W/m

0.00 mm

17:20

15.1 C

1011.8 hpa

72 %

0.0 km/h aus 117

0.0 km/h aus ---

10.0 C

14.7 C

15.1 C

14.7 C

261 W/m

0.00 mm

17:25

15.0 C

1011.8 hpa

74 %

0.0 km/h aus 117

0.0 km/h aus ---

10.4 C

14.7 C

15.0 C

14.7 C

237 W/m

0.00 mm

17:30

15.0 C

1011.8 hpa

73 %

1.6 km/h aus 116

4.8 km/h aus NNW

10.2 C

14.7 C

15.0 C

14.7 C

223 W/m

0.00 mm

17:35

14.9 C

1011.8 hpa

73 %

0.0 km/h aus 114

0.0 km/h aus ---

10.1 C

14.6 C

14.9 C

14.6 C

207 W/m

0.00 mm

17:40

15.0 C

1011.8 hpa

74 %

0.0 km/h aus 116

0.0 km/h aus ---

10.4 C

14.7 C

15.0 C

14.7 C

190 W/m

0.00 mm

17:45

14.9 C

1011.8 hpa

73 %

1.6 km/h aus 117

6.4 km/h aus NNW

10.1 C

14.6 C

14.9 C

14.6 C

190 W/m

0.00 mm

17:50

14.9 C

1011.8 hpa

74 %

0.0 km/h aus 117

0.0 km/h aus ---

10.3 C

14.7 C

14.9 C

14.7 C

198 W/m

0.00 mm

17:55

14.9 C

1011.8 hpa

74 %

0.0 km/h aus 116

0.0 km/h aus ---

10.3 C

14.7 C

14.9 C

14.7 C

158 W/m

0.00 mm

18:00

14.9 C

1011.8 hpa

74 %

0.0 km/h aus 114

0.0 km/h aus ---

10.3 C

14.6 C

14.9 C

14.6 C

123 W/m

0.00 mm

18:05

14.8 C

1011.8 hpa

75 %

0.0 km/h aus 115

0.0 km/h aus ---

10.4 C

14.6 C

14.8 C

14.6 C

102 W/m

0.00 mm

18:10

14.8 C

1011.8 hpa

75 %

0.0 km/h aus 117

1.6 km/h aus NNW

10.4 C

14.6 C

14.8 C

14.6 C

128 W/m

0.00 mm

18:15

14.8 C

1011.8 hpa

75 %

0.0 km/h aus 118

0.0 km/h aus ---

10.4 C

14.6 C

14.8 C

14.6 C

123 W/m

0.00 mm

18:20

14.8 C

1011.8 hpa

75 %

0.0 km/h aus 116

0.0 km/h aus ---

10.4 C

14.5 C

14.8 C

14.5 C

94 W/m

0.00 mm

18:25

14.8 C

1011.8 hpa

76 %

0.0 km/h aus 114

0.0 km/h aus ---

10.6 C

14.6 C

14.8 C

14.6 C

100 W/m

0.00 mm

18:30

14.8 C

1011.9 hpa

77 %

0.0 km/h aus 116

0.0 km/h aus ---

10.8 C

14.6 C

14.8 C

14.6 C

87 W/m

0.00 mm

18:35

14.8 C

1011.9 hpa

77 %

0.0 km/h aus 116

0.0 km/h aus ---

10.8 C

14.6 C

14.8 C

14.6 C

66 W/m

0.00 mm

18:40

14.8 C

1011.9 hpa

77 %

0.0 km/h aus 117

0.0 km/h aus ---

10.8 C

14.6 C

14.8 C

14.6 C

59 W/m

0.00 mm

18:45

14.9 C

1011.9 hpa

77 %

0.0 km/h aus 116

0.0 km/h aus ---

10.9 C

14.7 C

14.9 C

14.7 C

55 W/m

0.00 mm

18:50

14.9 C

1011.9 hpa

78 %

0.0 km/h aus 114

4.8 km/h aus NNW

11.1 C

14.8 C

14.9 C

14.8 C

41 W/m

0.00 mm

18:55

15.0 C

1011.9 hpa

78 %

1.6 km/h aus 117

4.8 km/h aus NNW

11.2 C

14.8 C

15.0 C

14.8 C

33 W/m

0.00 mm

19:00

15.0 C

1011.9 hpa

78 %

0.0 km/h aus 116

0.0 km/h aus ---

11.2 C

14.8 C

15.0 C

14.8 C

36 W/m

0.00 mm

19:05

14.9 C

1011.9 hpa

77 %

0.0 km/h aus 115

3.2 km/h aus NNW

10.9 C

14.7 C

14.9 C

14.7 C

35 W/m

0.00 mm

19:10

14.9 C

1011.9 hpa

77 %

0.0 km/h aus 116

0.0 km/h aus ---

10.9 C

14.7 C

14.9 C

14.7 C

33 W/m

0.00 mm

19:15

14.8 C

1012.1 hpa

77 %

0.0 km/h aus 113

0.0 km/h aus ---

10.8 C

14.6 C

14.8 C

14.6 C

34 W/m

0.00 mm

19:20

14.8 C

1012.1 hpa

77 %

0.0 km/h aus 117

0.0 km/h aus ---

10.8 C

14.6 C

14.8 C

14.6 C

37 W/m

0.00 mm

19:25

14.8 C

1012.1 hpa

77 %

0.0 km/h aus 117

0.0 km/h aus ---

10.8 C

14.6 C

14.8 C

14.6 C

35 W/m

0.00 mm

19:30

14.7 C

1012.2 hpa

77 %

0.0 km/h aus 117

0.0 km/h aus ---

10.7 C

14.5 C

14.7 C

14.5 C

36 W/m

0.00 mm

19:35

14.7 C

1012.2 hpa

78 %

0.0 km/h aus 116

0.0 km/h aus ---

10.9 C

14.6 C

14.7 C

14.6 C

46 W/m

0.00 mm

19:40

14.7 C

1012.2 hpa

78 %

0.0 km/h aus 114

0.0 km/h aus ---

10.9 C

14.5 C

14.7 C

14.5 C

66 W/m

0.00 mm

19:45

14.7 C

1012.2 hpa

78 %

0.0 km/h aus 117

1.6 km/h aus NNW

10.9 C

14.5 C

14.7 C

14.5 C

81 W/m

0.00 mm

19:50

14.7 C

1012.2 hpa

79 %

0.0 km/h aus 117

0.0 km/h aus ---

11.1 C

14.5 C

14.7 C

14.5 C

78 W/m

0.00 mm

19:55

14.7 C

1012.2 hpa

79 %

0.0 km/h aus 117

4.8 km/h aus NNW

11.1 C

14.5 C

14.7 C

14.5 C

76 W/m

0.00 mm

20:00

14.7 C

1012.2 hpa

78 %

1.6 km/h aus 115

4.8 km/h aus NNW

10.9 C

14.5 C

14.7 C

14.5 C

71 W/m

0.00 mm

20:05

14.6 C

1012.2 hpa

79 %

0.0 km/h aus 114

4.8 km/h aus NNW

11.0 C

14.4 C

14.6 C

14.4 C

69 W/m

0.00 mm

20:10

14.6 C

1012.2 hpa

79 %

0.0 km/h aus 117

0.0 km/h aus ---

11.0 C

14.4 C

14.6 C

14.4 C

67 W/m

0.00 mm

20:15

14.6 C

1012.2 hpa

79 %

0.0 km/h aus 117

0.0 km/h aus ---

11.0 C

14.4 C

14.6 C

14.4 C

62 W/m

0.00 mm

20:20

14.5 C

1012.2 hpa

79 %

0.0 km/h aus 117

0.0 km/h aus ---

10.9 C

14.3 C

14.5 C

14.3 C

54 W/m

0.00 mm

20:25

14.5 C

1012.2 hpa

79 %

0.0 km/h aus 117

0.0 km/h aus ---

10.9 C

14.3 C

14.5 C

14.3 C

47 W/m

0.00 mm

20:30

14.4 C

1012.2 hpa

80 %

0.0 km/h aus 114

0.0 km/h aus ---

11.0 C

14.3 C

14.4 C

14.3 C

42 W/m

0.00 mm

20:35

14.4 C

1012.2 hpa

80 %

0.0 km/h aus 117

0.0 km/h aus ---

11.0 C

14.3 C

14.4 C

14.3 C

39 W/m

0.00 mm

20:40

14.3 C

1012.2 hpa

80 %

0.0 km/h aus 117

0.0 km/h aus ---

10.9 C

14.2 C

14.3 C

14.2 C

34 W/m

0.00 mm

20:45

14.3 C

1012.3 hpa

80 %

0.0 km/h aus 117

0.0 km/h aus ---

10.9 C

14.2 C

14.3 C

14.2 C

32 W/m

0.00 mm

20:50

14.2 C

1012.3 hpa

80 %

0.0 km/h aus 116

0.0 km/h aus ---

10.8 C

14.1 C

14.2 C

14.1 C

28 W/m

0.00 mm

20:55

14.2 C

1012.3 hpa

80 %

0.0 km/h aus 113

0.0 km/h aus ---

10.8 C

14.1 C

14.2 C

14.1 C

22 W/m

0.00 mm

21:00

14.1 C

1012.3 hpa

80 %

0.0 km/h aus 116

0.0 km/h aus ---

10.7 C

13.9 C

14.1 C

13.9 C

18 W/m

0.00 mm

21:05

14.1 C

1012.3 hpa

80 %

0.0 km/h aus 117

0.0 km/h aus ---

10.7 C

13.9 C

14.1 C

13.9 C

15 W/m

0.00 mm

21:10

13.9 C

1012.3 hpa

80 %

0.0 km/h aus 117

0.0 km/h aus ---

10.5 C

13.8 C

13.9 C

13.8 C

12 W/m

0.00 mm

21:15

13.9 C

1012.3 hpa

81 %

0.0 km/h aus 116

0.0 km/h aus ---

10.7 C

13.7 C

13.9 C

13.7 C

8 W/m

0.00 mm

21:20

13.8 C

1012.3 hpa

81 %

0.0 km/h aus 114

0.0 km/h aus ---

10.6 C

13.6 C

13.8 C

13.6 C

5 W/m

0.00 mm

21:25

13.7 C

1012.3 hpa

81 %

0.0 km/h aus 116

0.0 km/h aus ---

10.5 C

13.5 C

13.7 C

13.5 C

1 W/m

0.00 mm

21:30

13.6 C

1012.7 hpa

81 %

0.0 km/h aus 118

0.0 km/h aus ---

10.4 C

13.4 C

13.6 C

13.4 C

0 W/m

0.00 mm

21:35

13.4 C

1012.7 hpa

81 %

0.0 km/h aus 117

0.0 km/h aus ---

10.2 C

13.3 C

13.4 C

13.3 C

0 W/m

0.00 mm

21:40

13.3 C

1012.7 hpa

81 %

0.0 km/h aus 117

0.0 km/h aus ---

10.1 C

13.2 C

13.3 C

13.2 C

0 W/m

0.00 mm

21:45

13.2 C

1012.8 hpa

81 %

0.0 km/h aus 115

0.0 km/h aus ---

10.0 C

13.0 C

13.2 C

13.0 C

0 W/m

0.00 mm

21:50

13.1 C

1012.8 hpa

82 %

0.0 km/h aus 114

0.0 km/h aus ---

10.1 C

12.9 C

13.1 C

12.9 C

0 W/m

0.00 mm

21:55

12.9 C

1012.8 hpa

82 %

0.0 km/h aus 117

0.0 km/h aus ---

9.9 C

12.8 C

12.9 C

12.8 C

0 W/m

0.00 mm

22:00

12.7 C

1012.9 hpa

82 %

0.0 km/h aus 117

0.0 km/h aus ---

9.7 C

12.6 C

12.7 C

12.6 C

0 W/m

0.00 mm

22:05

12.5 C

1012.9 hpa

82 %

0.0 km/h aus 117

0.0 km/h aus ---

9.5 C

12.4 C

12.5 C

12.4 C

0 W/m

0.00 mm

22:10

12.3 C

1012.9 hpa

83 %

0.0 km/h aus 117

0.0 km/h aus ---

9.5 C

12.2 C

12.3 C

12.2 C

0 W/m

0.00 mm

22:15

12.2 C

1012.8 hpa

83 %

0.0 km/h aus 114

0.0 km/h aus ---

9.4 C

12.1 C

12.2 C

12.1 C

0 W/m

0.00 mm

22:20

12.1 C

1012.8 hpa

83 %

0.0 km/h aus 115

0.0 km/h aus ---

9.3 C

11.9 C

12.1 C

11.9 C

0 W/m

0.00 mm

22:25

11.9 C

1012.8 hpa

84 %

0.0 km/h aus 116

0.0 km/h aus ---

9.3 C

11.9 C

11.9 C

11.9 C

0 W/m

0.00 mm

22:30

11.8 C

1012.8 hpa

84 %

0.0 km/h aus 118

0.0 km/h aus ---

9.2 C

11.8 C

11.8 C

11.8 C

0 W/m

0.00 mm

22:35

11.7 C

1012.8 hpa

84 %

0.0 km/h aus 117

0.0 km/h aus ---

9.1 C

11.7 C

11.7 C

11.7 C

0 W/m

0.00 mm

22:40

11.6 C

1012.8 hpa

84 %

0.0 km/h aus 116

0.0 km/h aus ---

9.0 C

11.6 C

11.6 C

11.6 C

0 W/m

0.00 mm

22:45

11.5 C

1012.9 hpa

85 %

0.0 km/h aus 112

0.0 km/h aus ---

9.1 C

11.4 C

11.5 C

11.4 C

0 W/m

0.00 mm

22:50

11.4 C

1012.9 hpa

85 %

0.0 km/h aus 116

0.0 km/h aus ---

9.0 C

11.4 C

11.4 C

11.4 C

0 W/m

0.00 mm

22:55

11.3 C

1012.9 hpa

85 %

0.0 km/h aus 115

0.0 km/h aus ---

8.8 C

11.3 C

11.3 C

11.3 C

0 W/m

0.00 mm

23:00

11.2 C

1012.8 hpa

85 %

0.0 km/h aus 116

0.0 km/h aus ---

8.7 C

11.2 C

11.2 C

11.2 C

0 W/m

0.00 mm

23:05

11.0 C

1012.8 hpa

85 %

0.0 km/h aus 117

0.0 km/h aus ---

8.6 C

11.0 C

11.0 C

11.0 C

0 W/m

0.00 mm

23:10

10.9 C

1012.8 hpa

86 %

0.0 km/h aus 115

0.0 km/h aus ---

8.6 C

10.9 C

10.9 C

10.9 C

0 W/m

0.00 mm

23:15

10.8 C

1012.9 hpa

87 %

0.0 km/h aus 114

0.0 km/h aus ---

8.8 C

10.9 C

10.8 C

10.9 C

0 W/m

0.00 mm

23:20

10.8 C

1012.9 hpa

88 %

0.0 km/h aus 117

0.0 km/h aus ---

8.9 C

10.9 C

10.8 C

10.9 C

0 W/m

0.00 mm

23:25

10.7 C

1012.9 hpa

88 %

0.0 km/h aus 117

0.0 km/h aus ---

8.8 C

10.8 C

10.7 C

10.8 C

0 W/m

0.00 mm

23:30

10.7 C

1012.9 hpa

88 %

0.0 km/h aus 117

0.0 km/h aus ---

8.8 C

10.8 C

10.7 C

10.8 C

0 W/m

0.00 mm

23:35

10.7 C

1012.9 hpa

88 %

0.0 km/h aus 118

0.0 km/h aus ---

8.8 C

10.7 C

10.7 C

10.7 C

0 W/m

0.00 mm

23:40

10.6 C

1012.9 hpa

88 %

0.0 km/h aus 113

0.0 km/h aus ---

8.7 C

10.7 C

10.6 C

10.7 C

0 W/m

0.00 mm

23:45

10.6 C

1013.0 hpa

88 %

0.0 km/h aus 114

0.0 km/h aus ---

8.7 C

10.6 C

10.6 C

10.6 C

0 W/m

0.00 mm

23:50

10.6 C

1013.0 hpa

88 %

0.0 km/h aus 116

0.0 km/h aus ---

8.7 C

10.6 C

10.6 C

10.6 C

0 W/m

0.00 mm

23:55

10.5 C

1013.0 hpa

88 %

0.0 km/h aus 117

0.0 km/h aus ---

8.6 C

10.6 C

10.5 C

10.6 C

0 W/m

0.00 mm